| time (UTC) | temp F | wind direction | speed knots | gust knots | rain 1hr in | rain 24hr in | rain mn in | humidity % | barometer mb |
| 20260505011548 | 51 | 246 | 2.6 | 18.2 | 0.00 | 0.31 | 0.27 | 67 | 1010.8 |
| 20260505010044 | 52 | 246 | 5.2 | 16.5 | 0.00 | 0.31 | 0.27 | 65 | 1010.7 |
| 20260505004543 | 52 | 246 | 4.3 | 13.0 | 0.01 | 0.33 | 0.27 | 64 | 1010.4 |
| 20260505003037 | 53 | 246 | 4.3 | 16.5 | 0.01 | 0.33 | 0.27 | 63 | 1010.3 |
| 20260505001537 | 53 | 246 | 6.1 | 13.9 | 0.01 | 0.33 | 0.27 | 63 | 1009.9 |
| 20260505000045 | 53 | 246 | 3.5 | 16.5 | 0.01 | 0.33 | 0.27 | 61 | 1009.5 |
| 20260504234540 | 54 | 246 | 7.0 | 15.6 | 0.00 | 0.35 | 0.26 | 60 | 1009.4 |
| 20260504233053 | 54 | 246 | 4.3 | 13.0 | 0.00 | 0.35 | 0.26 | 60 | 1009.3 |
| 20260504231537 | 55 | 246 | 5.2 | 13.0 | 0.00 | 0.35 | 0.26 | 60 | 1008.7 |
| 20260504230037 | 55 | 246 | 4.3 | 13.9 | 0.00 | 0.35 | 0.26 | 60 | 1008.6 |
| 20260504224543 | 55 | 246 | 4.3 | 13.9 | 0.00 | 0.38 | 0.26 | 60 | 1008.6 |
| 20260504223041 | 55 | 246 | 4.3 | 10.4 | 0.00 | 0.38 | 0.26 | 61 | 1008.7 |
| 20260504221545 | 56 | 246 | 3.5 | 13.0 | 0.01 | 0.38 | 0.26 | 60 | 1008.6 |
| 20260504220051 | 56 | 246 | 7.0 | 21.7 | 0.01 | 0.38 | 0.26 | 58 | 1008.7 |
| 20260504214537 | 57 | 246 | 1.7 | 14.8 | 0.01 | 0.41 | 0.26 | 57 | 1008.7 |
| 20260504213038 | 58 | 246 | 6.1 | 19.1 | 0.01 | 0.41 | 0.26 | 53 | 1008.9 |
| 20260504211538 | 60 | 246 | 8.7 | 15.6 | 0.00 | 0.40 | 0.25 | 49 | 1008.7 |
| 20260504210038 | 61 | 246 | 9.6 | 19.1 | 0.00 | 0.40 | 0.25 | 48 | 1008.4 |
| 20260504204553 | 62 | 246 | 4.3 | 13.0 | 0.00 | 0.43 | 0.25 | 53 | 1008.0 |
| 20260504203037 | 62 | 246 | 6.1 | 25.2 | 0.01 | 0.43 | 0.25 | 49 | 1007.8 |
| 20260504201537 | 62 | 246 | 7.8 | 19.1 | 0.01 | 0.43 | 0.25 | 46 | 1007.7 |
| 20260504200043 | 62 | 246 | 8.7 | 20.0 | 0.01 | 0.43 | 0.25 | 48 | 1007.7 |
| 20260504194542 | 61 | 246 | 8.7 | 22.6 | 0.01 | 0.46 | 0.25 | 48 | 1007.8 |
| 20260504193037 | 62 | 246 | 7.8 | 20.0 | 0.01 | 0.45 | 0.24 | 50 | 1007.6 |
| 20260504191540 | 62 | 246 | 9.6 | 23.5 | 0.01 | 0.45 | 0.24 | 49 | 1007.7 |
| 20260504190039 | 62 | 246 | 7.8 | 19.1 | 0.01 | 0.45 | 0.24 | 52 | 1007.5 |
| 20260504184538 | 62 | 246 | 7.0 | 19.1 | 0.01 | 0.48 | 0.24 | 50 | 1007.4 |
| 20260504183037 | 62 | 246 | 6.1 | 17.4 | 0.01 | 0.47 | 0.23 | 51 | 1007.3 |
| 20260504181542 | 62 | 246 | 6.1 | 18.2 | 0.01 | 0.47 | 0.23 | 48 | 1007.1 |
| 20260504180037 | 61 | 246 | 7.0 | 20.0 | 0.01 | 0.47 | 0.23 | 45 | 1007.4 |
| 20260504174538 | 62 | 246 | 8.7 | 18.2 | 0.02 | 0.50 | 0.23 | 45 | 1007.6 |
| 20260504173037 | 61 | 246 | 8.7 | 18.2 | 0.01 | 0.49 | 0.22 | 42 | 1007.5 |
| 20260504171538 | 61 | 246 | 10.4 | 18.2 | 0.01 | 0.49 | 0.22 | 38 | 1007.4 |
| 20260504081548 | 42 | 246 | 6.1 | 15.6 | 0.02 | 0.48 | 0.10 | 91 | 1002.7 |
| 20260504044535 | 41 | 246 | 6.1 | 13.9 | 0.02 | 0.42 | 0.04 | 95 | 999.2 |
| 20260504043041 | 40 | 246 | 7.0 | 16.5 | 0.02 | 0.41 | 0.03 | 95 | 999.2 |
| 20260504041535 | 40 | 246 | 4.3 | 13.9 | 0.02 | 0.41 | 0.03 | 95 | 999.0 |
| 20260504040040 | 39 | 246 | 5.2 | 13.0 | 0.02 | 0.40 | 0.02 | 95 | 998.7 |
| 20260504034537 | 39 | 246 | 5.2 | 16.5 | 0.02 | 0.40 | 0.02 | 94 | 998.5 |
| 20260504033039 | 38 | 246 | 4.3 | 14.8 | 0.02 | 0.39 | 0.01 | 94 | 998.4 |
| 20260504031535 | 38 | 246 | 7.8 | 20.9 | 0.02 | 0.39 | 0.01 | 94 | 998.1 |
| 20260504030041 | 38 | 246 | 6.1 | 13.9 | 0.02 | 0.38 | 0.00 | 94 | 997.9 |
| 20260504024539 | 38 | 246 | 7.0 | 18.2 | 0.02 | 0.38 | 0.38 | 94 | 997.7 |
| 20260504023038 | 38 | 246 | 8.7 | 19.1 | 0.02 | 0.37 | 0.37 | 94 | 997.5 |
| 20260504021537 | 38 | 246 | 6.1 | 19.1 | 0.02 | 0.37 | 0.37 | 94 | 997.2 |
| 20260504020057 | 38 | 246 | 6.1 | 17.4 | 0.02 | 0.36 | 0.36 | 94 | 996.9 |
| 20260504014553 | 37 | 246 | 6.1 | 14.8 | 0.02 | 0.36 | 0.36 | 94 | 996.6 |
| 20260504013053 | 37 | 246 | 6.1 | 20.9 | 0.02 | 0.35 | 0.35 | 94 | 996.1 |